Погода в Кобихе

Боливия     11°01′19″S   68°45′28″W
темп.,
°C
ветер,
м/с
пор.,
м/с
влажн.,
%
обл.,
%
осадки,
мм/ч
давл.,
гПа
погр.,
м
23 октября, сб
сб2323:00+25с2772100 0.0 1007162
02:00+24ссз1975100 0.0 1006249
05:00+23ссз1882100 0.0 1006245
08:00+28сз386364 0.0 1009565
11:00+35сз343920 0.0 10092080
14:00+35сз243790 0.0 10052056
17:00+32ссз2646100 0.0 1003359
20:00+28с115823 0.0 100525
24 октября, вс
вс2423:00+27с29605 0.0 1006216
02:00+25ссз2106716 0.0 1005246
05:00+25ссз297087 0.0 1005313
08:00+28сз2958100 0.0 1009531
11:00+37сз353436 0.0 10082104
14:00+39сз232892 0.0 10043466
17:00+34ююв134099 0.1 1003209
20:00+24ююв31191100 1.4 1008295
25 октября, пн
пн2523:00+20юв31197100 2.7 1013639
02:00+19ююв3997100 3.1 1012691
05:00+18ююв2119899 2.8 1013579
08:00+19ююв2797100 3.8 1017650
11:00+19юв1797100 2.3 1017563
14:00+19юв1798100 3.4 1014550
17:00+19вюв1698100 0.4 1012322
20:00+19вюв2898100 0.6 1012246
26 октября, вт
вт2623:00+19юз0099100 0.0 101524
02:00+19ююв129996 0.0 101498
05:00+19юв1399100 0.3 1013114
08:00+20вюв1397100 0.3 1016176
11:00+24в1278100 0.0 1017605
14:00+29всв235688 0.2 10121344
17:00+25ссв139460 2.8 1011350
20:00+22ссв1299100 4.5 101335
27 октября, ср
ср2723:00+21с009997 0.0 101314
02:00+20юз119976 0.0 101116
05:00+20ю0099100 0.0 101116
08:00+23вюв129352 0.0 1014207
11:00+33в134399 0.0 10131501
14:00+37всв2231100 0.0 10092882
17:00+34всв233777 0.1 10071435
20:00+28св295785 0.1 1009250